Tracking 30009 objects as of 7-Dec-2024
HD Live streaming from Space Station
objects crossing your sky now

STARLINK-32077

Track STARLINK-32077 now!
10-day predictions
STARLINK-32077 is classified as:


NORAD ID: 60344
Int'l Code: 2024-136R
Perigee: 481.6 km
Apogee: 483.1 km
Inclination: 53.2 °
Period: 94.1 minutes
Semi major axis: 6853 km
RCS: Unknown
Launch date: August 2, 2024
Source: United States (US)
Launch site: AIR FORCE EASTERN TEST RANGE (AFETR)
Your satellite tracking list
Your tracking list is empty




NASA's NSSDC Master Catalog

Two Line Element Set (TLE):
1 60344U 24136R   24342.14278813  .00000745  00000-0  37267-4 0  9997
2 60344  53.1602  40.8131 0001111 112.4685 247.6433 15.30201037 20771
Source of the keplerian elements: AFSPC